When you browse on this site, cookies collect data to enhance your experience and personalize the content and advertising you see.
Visit our Privacy Policy to learn more. By continuing to use the site, you agree to this use of cookies and data.
  • En España
  • Lista de países
  • Para 7 días
  • Temperatura del agua
  • Mapa Satelital
  • El tiempo en el mapa
  • Informadores
  • user-avatar
    Iniciar sesión

    Tiempo cada hora Chervonyi Hai

    Hoy, 24 Mayo, Viernes

    Tiempo Temperatura Precipitaciones Viento Presión Humedad
    00:00 +16°C° 0.4 mm 1 mps 738 mmHg 84%
    01:00 +15°C° 0.4 mm 1 mps 738 mmHg 86%
    02:00 +15°C° 0 mm 2 mps 738 mmHg 90%
    03:00 +15°C° 0.2 mm 2 mps 738 mmHg 90%
    04:00 +15°C° 0.2 mm 2 mps 738 mmHg 90%
    05:00 +15°C° 0.2 mm 2 mps 738 mmHg 90%
    06:00 +16°C° 0 mm 1 mps 739 mmHg 86%
    07:00 +19°C° 0 mm 1 mps 739 mmHg 82%
    08:00 +20°C° 0 mm 1 mps 739 mmHg 77%
    09:00 +22°C° 0.4 mm 1 mps 739 mmHg 73%
    10:00 +23°C° 0.4 mm 1 mps 739 mmHg 69%
    11:00 +24°C° 0.4 mm 2 mps 738 mmHg 65%
    12:00 +24°C° 0.2 mm 2 mps 738 mmHg 61%
    13:00 +25°C° 0.2 mm 2 mps 738 mmHg 58%
    14:00 +26°C° 0.2 mm 2 mps 738 mmHg 54%
    15:00 +25°C° 1.7 mm 2 mps 738 mmHg 59%
    16:00 +24°C° 1.7 mm 2 mps 738 mmHg 65%
    17:00 +24°C° 1.7 mm 2 mps 738 mmHg 71%
    18:00 +21°C° 0.8 mm 2 mps 738 mmHg 76%
    19:00 +19°C° 0.8 mm 2 mps 737 mmHg 81%
    20:00 +17°C° 0.8 mm 3 mps 737 mmHg 86%
    21:00 +17°C° 0.3 mm 2 mps 737 mmHg 89%
    22:00 +16°C° 0.3 mm 2 mps 737 mmHg 91%
    23:00 +16°C° 0.3 mm 2 mps 737 mmHg 93%

    Mañana, 25 Mayo, Sábado

    Tiempo Temperatura Precipitaciones Viento Presión Humedad
    00:00 +15°C° 0 mm 2 mps 737 mmHg 93%
    01:00 +15°C° 0 mm 1 mps 737 mmHg 93%
    02:00 +15°C° 0 mm 1 mps 737 mmHg 93%
    03:00 +15°C° 0 mm 1 mps 737 mmHg 93%
    04:00 +15°C° 0 mm 1 mps 737 mmHg 93%
    05:00 +15°C° 0 mm 2 mps 737 mmHg 93%
    06:00 +16°C° 0 mm 2 mps 737 mmHg 90%
    07:00 +18°C° 0 mm 2 mps 737 mmHg 86%
    08:00 +19°C° 0 mm 2 mps 737 mmHg 83%
    09:00 +20°C° 0.9 mm 3 mps 737 mmHg 77%
    10:00 +22°C° 0.9 mm 3 mps 737 mmHg 72%
    11:00 +24°C° 0.9 mm 3 mps 737 mmHg 66%
    12:00 +24°C° 0.5 mm 3 mps 737 mmHg 66%
    13:00 +23°C° 0.5 mm 4 mps 737 mmHg 65%
    14:00 +23°C° 0.5 mm 4 mps 737 mmHg 65%
    15:00 +23°C° 0.6 mm 4 mps 737 mmHg 68%
    16:00 +22°C° 0.6 mm 4 mps 737 mmHg 71%
    17:00 +22°C° 0.6 mm 4 mps 736 mmHg 74%
    18:00 +20°C° 0.2 mm 4 mps 737 mmHg 77%
    19:00 +19°C° 0.2 mm 4 mps 737 mmHg 81%
    20:00 +18°C° 0.2 mm 3 mps 737 mmHg 84%
    21:00 +17°C° 0 mm 3 mps 737 mmHg 87%
    22:00 +16°C° 0 mm 3 mps 738 mmHg 89%
    23:00 +14°C° 0 mm 3 mps 738 mmHg 92%

    Pasado mañana, 26 Mayo, Domingo

    Tiempo Temperatura Precipitaciones Viento Presión Humedad
    00:00 +14°C° 0 mm 3 mps 738 mmHg 92%
    01:00 +13°C° 0 mm 3 mps 738 mmHg 92%
    02:00 +13°C° 0 mm 3 mps 738 mmHg 93%
    03:00 +13°C° 0 mm 3 mps 739 mmHg 93%
    04:00 +12°C° 0 mm 3 mps 739 mmHg 94%
    05:00 +12°C° 0 mm 3 mps 739 mmHg 94%
    06:00 +14°C° 0 mm 3 mps 740 mmHg 90%
    07:00 +16°C° 0 mm 3 mps 740 mmHg 85%
    08:00 +18°C° 0 mm 4 mps 740 mmHg 81%
    09:00 +19°C° 0 mm 4 mps 740 mmHg 76%
    10:00 +20°C° 0 mm 5 mps 740 mmHg 70%
    11:00 +21°C° 0 mm 5 mps 740 mmHg 65%
    12:00 +21°C° 0 mm 5 mps 740 mmHg 64%
    13:00 +22°C° 0 mm 5 mps 740 mmHg 62%
    14:00 +22°C° 0 mm 6 mps 740 mmHg 61%
    15:00 +22°C° 0 mm 5 mps 740 mmHg 63%
    16:00 +21°C° 0 mm 5 mps 740 mmHg 65%
    17:00 +21°C° 0 mm 4 mps 740 mmHg 66%
    18:00 +19°C° 0 mm 4 mps 740 mmHg 71%
    19:00 +18°C° 0 mm 3 mps 740 mmHg 76%
    20:00 +16°C° 0 mm 2 mps 740 mmHg 81%
    21:00 +16°C° 0 mm 2 mps 741 mmHg 83%
    22:00 +15°C° 0 mm 2 mps 741 mmHg 84%
    23:00 +15°C° 0 mm 2 mps 741 mmHg 86%

    27 Mayo, Lunes

    Tiempo Temperatura Precipitaciones Viento Presión Humedad
    00:00 +14°C° 0 mm 3 mps 741 mmHg 89%
    01:00 +13°C° 0 mm 3 mps 741 mmHg 91%
    02:00 +13°C° 0 mm 3 mps 742 mmHg 94%
    03:00 +13°C° 0 mm 3 mps 742 mmHg 94%
    04:00 +13°C° 0 mm 3 mps 742 mmHg 93%
    05:00 +14°C° 0 mm 2 mps 742 mmHg 93%
    06:00 +16°C° 0 mm 3 mps 742 mmHg 88%
    07:00 +18°C° 0 mm 3 mps 742 mmHg 83%
    08:00 +20°C° 0 mm 3 mps 742 mmHg 78%
    09:00 +21°C° 0.6 mm 3 mps 742 mmHg 75%
    10:00 +22°C° 0.6 mm 4 mps 743 mmHg 73%
    11:00 +23°C° 0.6 mm 4 mps 743 mmHg 70%
    12:00 +25°C° 0.4 mm 4 mps 743 mmHg 67%
    13:00 +25°C° 0.4 mm 4 mps 742 mmHg 65%
    14:00 +26°C° 0.4 mm 4 mps 742 mmHg 62%
    15:00 +26°C° 0.2 mm 4 mps 742 mmHg 64%
    16:00 +26°C° 0.2 mm 3 mps 742 mmHg 65%
    17:00 +26°C° 0.2 mm 3 mps 742 mmHg 66%
    18:00 +25°C° 0.1 mm 3 mps 742 mmHg 72%
    19:00 +23°C° 0.1 mm 2 mps 742 mmHg 77%
    20:00 +20°C° 0.1 mm 2 mps 742 mmHg 83%
    21:00 +20°C° 0 mm 2 mps 742 mmHg 85%
    22:00 +19°C° 0 mm 2 mps 742 mmHg 87%
    23:00 +19°C° 0 mm 3 mps 742 mmHg 88%

    28 Mayo, Martes

    Tiempo Temperatura Precipitaciones Viento Presión Humedad
    00:00 +19°C° 0 mm 3 mps 742 mmHg 88%
    01:00 +18°C° 0 mm 4 mps 742 mmHg 88%
    02:00 +18°C° 0 mm 4 mps 742 mmHg 88%
    03:00 +18°C° 0 mm 4 mps 742 mmHg 86%
    04:00 +17°C° 0 mm 4 mps 742 mmHg 84%
    05:00 +17°C° 0 mm 4 mps 741 mmHg 81%
    06:00 +17°C° 0 mm 5 mps 741 mmHg 78%
    07:00 +19°C° 0 mm 6 mps 742 mmHg 74%
    08:00 +20°C° 0 mm 6 mps 742 mmHg 70%
    09:00 +21°C° 0 mm 7 mps 742 mmHg 69%
    10:00 +22°C° 0 mm 7 mps 741 mmHg 68%
    11:00 +22°C° 0 mm 7 mps 741 mmHg 67%
    12:00 +23°C° 0 mm 7 mps 741 mmHg 65%
    13:00 +24°C° 0 mm 7 mps 741 mmHg 63%
    14:00 +26°C° 0 mm 8 mps 741 mmHg 61%
    15:00 +26°C° 0 mm 7 mps 740 mmHg 64%
    16:00 +26°C° 0 mm 7 mps 740 mmHg 66%
    17:00 +26°C° 0 mm 6 mps 739 mmHg 68%
    18:00 +23°C° 0 mm 6 mps 739 mmHg 71%
    19:00 +22°C° 0 mm 5 mps 739 mmHg 73%
    20:00 +21°C° 0 mm 5 mps 739 mmHg 75%
    21:00 +20°C° 0 mm 6 mps 739 mmHg 73%
    22:00 +19°C° 0 mm 6 mps 739 mmHg 70%
    23:00 +19°C° 0 mm 6 mps 738 mmHg 67%

    29 Mayo, Miércoles

    Tiempo Temperatura Precipitaciones Viento Presión Humedad
    00:00 +17°C° 0 mm 6 mps 738 mmHg 69%
    01:00 +17°C° 0 mm 6 mps 738 mmHg 72%
    02:00 +16°C° 0 mm 6 mps 738 mmHg 74%
    03:00 +16°C° 0 mm 5 mps 738 mmHg 78%
    04:00 +15°C° 0 mm 5 mps 738 mmHg 82%
    05:00 +15°C° 0 mm 5 mps 738 mmHg 85%
    06:00 +16°C° 0 mm 5 mps 739 mmHg 84%
    07:00 +19°C° 0 mm 5 mps 739 mmHg 83%
    08:00 +20°C° 0 mm 5 mps 739 mmHg 82%
    09:00 +21°C° 0.1 mm 5 mps 739 mmHg 79%
    10:00 +23°C° 0.1 mm 5 mps 739 mmHg 76%
    11:00 +25°C° 0.1 mm 5 mps 739 mmHg 73%
    12:00 +26°C° 0.5 mm 5 mps 739 mmHg 69%
    13:00 +27°C° 0.5 mm 5 mps 739 mmHg 64%
    14:00 +28°C° 0.5 mm 5 mps 739 mmHg 60%
    15:00 +27°C° 0.3 mm 4 mps 739 mmHg 64%
    16:00 +27°C° 0.3 mm 4 mps 739 mmHg 68%
    17:00 +26°C° 0.3 mm 3 mps 739 mmHg 73%
    18:00 +25°C° 0 mm 3 mps 739 mmHg 77%
    19:00 +23°C° 0 mm 2 mps 739 mmHg 81%
    20:00 +21°C° 0 mm 2 mps 739 mmHg 85%
    21:00 +20°C° 0 mm 2 mps 740 mmHg 87%
    22:00 +19°C° 0 mm 2 mps 740 mmHg 88%
    23:00 +19°C° 0 mm 1 mps 740 mmHg 89%
    Mostrar más